Content
SEND FEEDBACK

Daily
Averages
Monthly
Summary
United States of America

LIVONIA, MICHIGAN


Home > North America > United States > Michigan
Elevation: 778 feet     Latitude: 42 13N     Longitude: 083 31W

WEATHER
 
SELECT A DAY
Number of Records: 202,813;   Date Range: 1/1/95 - 9/3/14
 
SHARE

PRINT THIS DATA

[ ← Previous Day ]
WEATHER ALMANAC - MARCH 17, 2013
[ Next Day → ]
[ °C ]   °F
Weather ElementAverageHighLow
Temperature28.4 °F35.1 °F (4:53 pm)23 °F (6:53 am)
Dewpoint15.5 °F21.9 °F (1:53 am)10.9 °F (10:53 am)
Humidity59 %69 % (5:53 am)46 % (12:53 pm)
Barometer30.20 in30.27 in (11:53 am)30.06 in (1:53 am)
Wind Speed10.1 mph19.6 mph (2:53 am)
Wind Gust23 mph (2:53 am)
Weather ElementAverage
Visibility10 mi
Wind DirectionSSE (149.6 °)

Weather ElementTotal
Precipitation0.02 in
Heating Degree Days36 (Base 65)
Averaged from 24 records on March 17, 2013
WEATHER CONDITIONS BREAKOUT
WIND DIRECTION BREAKOUT
WEATHER BY HOUR - MARCH 17, 2013
[ °C ]   °F
Local TimeTemperatureDewpointHumidityBarometerVisibilityWind DirectionWind SpeedGust SpeedPrecipitationEventsConditions
1:53 AM32.0 °F21.9 °F66 %30.06 in10.0 miWest (260°)9.2 mphOvercast
2:53 AM30.9 °F21.0 °F67 %30.08 in10.0 miWNW (290°)19.6 mph23.0 mphOvercast
3:53 AM28.0 °F17.1 °F63 %30.10 in10.0 miWNW (300°)15.0 mphScattered Clouds
4:29 AM26.6 °F15.8 °F64 %30.09 in10.0 miNW (310°)12.7 mphMostly Cloudy
4:53 AM27.0 °F16.0 °F63 %30.11 in10.0 miNW (320°)10.4 mphMostly Cloudy
5:05 AM26.6 °F15.8 °F64 %30.09 in10.0 miNNW (330°)8.1 mphScattered Clouds
5:53 AM24.1 °F15.1 °F69 %30.12 in10.0 miNW (320°)5.8 mphClear
6:53 AM23.0 °F14.0 °F68 %30.16 in10.0 miNNW (330°)4.6 mphClear
7:53 AM24.1 °F15.1 °F69 %30.19 in10.0 miNorth (350°)6.9 mphClear
8:53 AM27.0 °F15.1 °F61 %30.22 in10.0 miNorth (10°)11.5 mphClear
9:53 AM27.0 °F12.9 °F56 %30.25 in10.0 miNNE (30°)15.0 mphClear
10:53 AM28.0 °F10.9 °F49 %30.26 in10.0 miNNE (20°)12.7 mphClear
11:53 AM28.9 °F12.9 °F51 %30.27 in10.0 miNNE (20°)10.4 mphClear
12:53 PM30.9 °F12.0 °F46 %30.27 in10.0 miNNE (20°)6.9 mph0.01 inClear
1:53 PM32.0 °F15.1 °F50 %30.27 in10.0 miENE (70°)8.1 mph0.01 inClear
2:53 PM33.1 °F16.0 °F50 %30.25 in10.0 miVariable3.5 mphClear
4:53 PM35.1 °F18.0 °F50 %30.23 in10.0 miEast (80°)6.9 mph17.3 mphOvercast
5:53 PM33.1 °F17.1 °F52 %30.23 in10.0 miEast (100°)12.7 mphMostly Cloudy
6:53 PM30.0 °F15.1 °F54 %30.23 in10.0 miEast (90°)10.4 mphScattered Clouds
7:53 PM28.9 °F15.1 °F56 %30.25 in10.0 miENE (70°)11.5 mphPartly Cloudy
8:53 PM28.9 °F15.1 °F56 %30.27 in10.0 miEast (90°)9.2 mphOvercast
9:53 PM27.0 °F15.1 °F61 %30.26 in10.0 miENE (60°)10.4 mphScattered Clouds
10:53 PM25.0 °F15.1 °F66 %30.23 in10.0 miENE (60°)10.4 mphClear
11:53 PM25.0 °F15.1 °F66 %30.20 in10.0 miENE (60°)10.4 mphClear
Hourly data recorded from KYIP, located miles away from Livonia, Michigan







STORIES FROM OUR PARTNERS